Precipitable_Water
1.36 1.32 1.30 1.28 1.27 1.25 1.25 1.28 1.29 1.32 1.31 1.32 1.27 1.26 1.28 1.28 1.29 1.30 1.37 1.36 1.41 1.42 1.38 1.35 1.34 1.32 1.30 1.32 1.33 1.34 1.33 1.31 1.22 1.06 1.01 1.04 1.10 1.13 1.18 1.20 1.20 1.23 1.24 1.24 1.24 1.20 1.16 1.13 1.14 1.19 1.24 1.19 1.19 1.22 1.21 1.22 1.24 1.22 1.21 1.17 1.14 1.18 1.14 1.07 0.96 0.91 1.01 1.15 1.13 1.10 1.17 1.18 1.10 1.12 1.07 1.08 1.10 1.14 1.18 1.21 1.23 1.23 1.24 1.24 1.24
1.34 1.34 1.35 1.33 1.29 1.28 1.29 1.32 1.33 1.34 1.32 1.31 1.28 1.28 1.28 1.28 1.30 1.35 1.32 1.38 1.42 1.37 1.35 1.35 1.34 1.32 1.30 1.28 1.29 1.32 1.34 1.34 1.30 1.15 1.06 1.05 1.08 1.10 1.12 1.16 1.18 1.21 1.25 1.22 1.24 1.24 1.21 1.16 1.12 1.15 1.22 1.19 1.20 1.21 1.21 1.21 1.21 1.18 1.18 1.18 1.17 1.18 1.23 1.12 1.06 1.01 0.93 1.05 1.08 1.16 1.13 1.19 1.05 1.12 1.06 1.05 1.06 1.11 1.12 1.16 1.21 1.23 1.22 1.23 1.23
1.36 1.38 1.35 1.32 1.30 1.32 1.33 1.33 1.34 1.34 1.31 1.30 1.28 1.27 1.28 1.30 1.35 1.32 1.33 1.37 1.40 1.37 1.35 1.35 1.33 1.32 1.28 1.27 1.28 1.30 1.33 1.35 1.34 1.24 1.12 1.05 1.03 1.05 1.07 1.10 1.14 1.18 1.24 1.22 1.23 1.27 1.23 1.20 1.16 1.16 1.22 1.21 1.22 1.24 1.27 1.25 1.26 1.21 1.19 1.22 1.21 1.24 1.27 1.26 1.18 1.09 1.06 1.06 1.15 1.12 1.13 1.16 1.11 1.09 1.12 1.12 1.13 1.16 1.14 1.16 1.18 1.20 1.21 1.21 1.18
1.37 1.40 1.39 1.34 1.32 1.32 1.33 1.35 1.34 1.33 1.29 1.29 1.26 1.27 1.29 1.31 1.35 1.34 1.36 1.38 1.35 1.37 1.38 1.36 1.35 1.32 1.27 1.25 1.27 1.29 1.31 1.34 1.34 1.30 1.18 1.06 1.02 1.04 1.07 1.09 1.11 1.14 1.22 1.24 1.25 1.26 1.24 1.21 1.18 1.18 1.22 1.25 1.27 1.28 1.30 1.30 1.26 1.25 1.25 1.26 1.26 1.25 1.30 1.33 1.32 1.22 1.19 1.12 1.17 1.17 1.21 1.17 1.19 1.23 1.24 1.23 1.20 1.20 1.20 1.21 1.23 1.22 1.21 1.21 1.17
1.37 1.38 1.39 1.37 1.36 1.32 1.31 1.34 1.32 1.31 1.28 1.28 1.26 1.28 1.30 1.32 1.35 1.34 1.37 1.35 1.35 1.36 1.36 1.38 1.35 1.33 1.29 1.27 1.27 1.27 1.28 1.30 1.31 1.32 1.26 1.14 1.06 1.06 1.08 1.09 1.10 1.14 1.20 1.22 1.24 1.25 1.26 1.23 1.21 1.20 1.24 1.25 1.29 1.29 1.31 1.29 1.29 1.29 1.27 1.31 1.31 1.31 1.33 1.34 1.32 1.32 1.25 1.17 1.17 1.25 1.27 1.25 1.25 1.26 1.29 1.22 1.24 1.26 1.27 1.23 1.20 1.18 1.18 1.21 1.21
1.39 1.38 1.38 1.37 1.35 1.32 1.30 1.30 1.29 1.27 1.26 1.25 1.25 1.28 1.31 1.33 1.34 1.36 1.37 1.34 1.35 1.36 1.34 1.34 1.33 1.31 1.33 1.33 1.33 1.33 1.34 1.35 1.36 1.36 1.33 1.24 1.16 1.15 1.13 1.11 1.12 1.15 1.20 1.21 1.23 1.27 1.28 1.28 1.26 1.24 1.26 1.27 1.27 1.30 1.32 1.31 1.33 1.33 1.32 1.34 1.35 1.36 1.33 1.33 1.33 1.30 1.27 1.23 1.22 1.20 1.26 1.22 1.22 1.24 1.29 1.29 1.23 1.19 1.20 1.22 1.22 1.20 1.16 1.14 1.17
1.38 1.37 1.38 1.37 1.35 1.32 1.29 1.27 1.28 1.27 1.25 1.24 1.27 1.30 1.32 1.34 1.35 1.35 1.38 1.37 1.35 1.33 1.34 1.33 1.35 1.36 1.39 1.41 1.41 1.41 1.42 1.43 1.44 1.45 1.43 1.37 1.28 1.23 1.18 1.14 1.13 1.17 1.24 1.23 1.25 1.29 1.31 1.29 1.26 1.25 1.27 1.32 1.31 1.30 1.31 1.33 1.34 1.35 1.37 1.36 1.38 1.37 1.35 1.33 1.33 1.30 1.26 1.22 1.21 1.21 1.18 1.23 1.23 1.16 1.27 1.34 1.31 1.27 1.18 1.15 1.12 1.18 1.18 1.15 1.11
1.39 1.38 1.36 1.34 1.33 1.32 1.32 1.31 1.29 1.28 1.27 1.27 1.28 1.30 1.32 1.35 1.37 1.40 1.42 1.38 1.35 1.33 1.32 1.33 1.37 1.42 1.44 1.45 1.47 1.48 1.47 1.48 1.49 1.50 1.50 1.46 1.39 1.31 1.25 1.18 1.16 1.22 1.31 1.36 1.33 1.30 1.30 1.28 1.24 1.24 1.29 1.35 1.34 1.33 1.35 1.35 1.38 1.35 1.38 1.41 1.42 1.40 1.36 1.35 1.33 1.30 1.26 1.23 1.18 1.16 1.19 1.16 1.18 1.23 1.28 1.29 1.25 1.25 1.27 1.22 1.11 1.08 1.09 1.16 1.18
1.40 1.39 1.37 1.32 1.29 1.32 1.34 1.35 1.33 1.30 1.29 1.28 1.28 1.30 1.33 1.37 1.40 1.42 1.43 1.40 1.40 1.39 1.39 1.40 1.41 1.42 1.46 1.47 1.48 1.49 1.48 1.48 1.51 1.52 1.52 1.52 1.50 1.39 1.30 1.22 1.23 1.30 1.37 1.38 1.35 1.34 1.33 1.29 1.26 1.24 1.26 1.29 1.32 1.36 1.42 1.43 1.39 1.35 1.40 1.44 1.42 1.40 1.39 1.38 1.33 1.30 1.28 1.24 1.21 1.26 1.24 1.20 1.20 1.20 1.20 1.21 1.20 1.19 1.26 1.27 1.19 1.17 1.16 1.15 1.19
1.39 1.40 1.36 1.31 1.33 1.36 1.36 1.36 1.35 1.33 1.30 1.27 1.27 1.30 1.34 1.37 1.40 1.41 1.41 1.42 1.42 1.45 1.46 1.47 1.46 1.44 1.43 1.45 1.48 1.49 1.49 1.52 1.55 1.57 1.60 1.61 1.60 1.52 1.45 1.39 1.34 1.36 1.39 1.38 1.35 1.34 1.33 1.28 1.25 1.24 1.24 1.24 1.29 1.36 1.39 1.43 1.49 1.50 1.47 1.46 1.44 1.44 1.42 1.37 1.34 1.33 1.29 1.22 1.21 1.23 1.21 1.19 1.18 1.18 1.18 1.22 1.29 1.32 1.26 1.21 1.12 1.13 1.15 1.11 1.13
1.37 1.37 1.34 1.37 1.41 1.41 1.38 1.36 1.37 1.33 1.29 1.29 1.30 1.31 1.33 1.37 1.39 1.40 1.41 1.42 1.43 1.47 1.50 1.49 1.49 1.49 1.49 1.48 1.48 1.49 1.50 1.54 1.57 1.62 1.66 1.74 1.77 1.76 1.64 1.47 1.36 1.33 1.36 1.36 1.31 1.29 1.32 1.27 1.24 1.26 1.27 1.25 1.28 1.32 1.40 1.47 1.52 1.55 1.54 1.54 1.57 1.54 1.46 1.38 1.34 1.33 1.29 1.24 1.25 1.24 1.21 1.18 1.19 1.24 1.22 1.25 1.30 1.28 1.22 1.17 1.11 1.10 1.08 1.04 0.95
1.30 1.32 1.35 1.42 1.46 1.43 1.38 1.36 1.35 1.33 1.33 1.30 1.31 1.34 1.37 1.38 1.37 1.37 1.38 1.39 1.44 1.49 1.49 1.49 1.51 1.53 1.54 1.55 1.53 1.52 1.52 1.56 1.60 1.65 1.75 1.83 1.92 1.75 1.63 1.52 1.35 1.30 1.31 1.33 1.31 1.29 1.27 1.23 1.22 1.24 1.26 1.25 1.30 1.37 1.43 1.47 1.47 1.48 1.51 1.55 1.60 1.63 1.60 1.46 1.36 1.31 1.29 1.26 1.23 1.21 1.23 1.22 1.23 1.25 1.26 1.29 1.28 1.24 1.15 1.11 1.11 1.07 1.01 0.96 0.94
1.25 1.27 1.35 1.43 1.46 1.46 1.43 1.39 1.34 1.32 1.31 1.31 1.33 1.37 1.38 1.38 1.38 1.37 1.36 1.40 1.45 1.46 1.48 1.51 1.52 1.55 1.55 1.53 1.53 1.55 1.56 1.62 1.66 1.73 1.83 1.87 1.87 1.74 1.69 1.55 1.43 1.37 1.32 1.32 1.31 1.28 1.24 1.19 1.16 1.19 1.21 1.23 1.32 1.39 1.39 1.41 1.45 1.50 1.52 1.52 1.54 1.54 1.49 1.43 1.40 1.33 1.31 1.27 1.28 1.28 1.27 1.28 1.26 1.29 1.35 1.31 1.27 1.10 1.11 1.12 1.10 1.06 1.02 0.96 0.96
1.20 1.22 1.31 1.39 1.44 1.48 1.48 1.44 1.38 1.34 1.33 1.34 1.36 1.36 1.36 1.35 1.38 1.40 1.40 1.43 1.44 1.46 1.49 1.50 1.52 1.53 1.54 1.54 1.54 1.58 1.61 1.66 1.72 1.80 1.84 1.83 1.80 1.80 1.82 1.69 1.50 1.38 1.31 1.31 1.32 1.31 1.25 1.17 1.11 1.12 1.17 1.24 1.32 1.35 1.38 1.43 1.46 1.47 1.46 1.45 1.43 1.41 1.40 1.37 1.33 1.33 1.37 1.34 1.31 1.25 1.31 1.37 1.29 1.31 1.34 1.33 1.21 1.14 1.14 1.08 1.05 0.99 0.96 0.95 1.02
1.15 1.20 1.26 1.35 1.44 1.49 1.51 1.49 1.44 1.42 1.40 1.36 1.34 1.34 1.34 1.37 1.41 1.43 1.43 1.43 1.42 1.42 1.45 1.47 1.51 1.53 1.56 1.59 1.59 1.60 1.62 1.69 1.75 1.80 1.79 1.80 1.84 1.86 1.77 1.61 1.50 1.40 1.37 1.33 1.33 1.31 1.26 1.20 1.18 1.17 1.19 1.28 1.34 1.39 1.40 1.40 1.40 1.39 1.37 1.34 1.32 1.31 1.29 1.29 1.31 1.30 1.29 1.32 1.33 1.32 1.33 1.37 1.35 1.35 1.34 1.34 1.29 1.25 1.21 1.14 1.12 1.08 1.05 1.08 1.06
1.10 1.17 1.23 1.32 1.40 1.46 1.49 1.50 1.50 1.51 1.49 1.42 1.36 1.32 1.34 1.37 1.38 1.43 1.45 1.46 1.48 1.50 1.52 1.53 1.51 1.53 1.59 1.63 1.63 1.62 1.67 1.72 1.76 1.78 1.80 1.84 1.86 1.88 1.80 1.69 1.54 1.44 1.37 1.34 1.33 1.33 1.30 1.26 1.23 1.21 1.26 1.36 1.43 1.43 1.39 1.39 1.35 1.28 1.22 1.17 1.19 1.23 1.24 1.31 1.36 1.36 1.36 1.37 1.37 1.37 1.38 1.37 1.37 1.35 1.34 1.32 1.30 1.29 1.27 1.24 1.19 1.10 1.02 0.94 0.87
1.08 1.13 1.17 1.25 1.36 1.45 1.49 1.50 1.52 1.53 1.53 1.47 1.39 1.36 1.36 1.39 1.43 1.47 1.44 1.44 1.45 1.47 1.48 1.50 1.56 1.59 1.62 1.65 1.65 1.65 1.67 1.70 1.76 1.80 1.83 1.87 1.90 1.84 1.73 1.65 1.57 1.50 1.40 1.35 1.36 1.36 1.35 1.35 1.32 1.32 1.35 1.39 1.41 1.36 1.33 1.32 1.26 1.18 1.10 1.07 1.10 1.14 1.17 1.25 1.30 1.36 1.40 1.41 1.41 1.40 1.38 1.37 1.36 1.34 1.31 1.28 1.24 1.22 1.15 1.03 0.95 0.99 0.92 0.82 0.83
1.07 1.11 1.16 1.23 1.32 1.43 1.49 1.52 1.52 1.55 1.54 1.48 1.43 1.43 1.45 1.47 1.44 1.47 1.42 1.42 1.44 1.46 1.51 1.56 1.61 1.65 1.67 1.68 1.68 1.65 1.65 1.72 1.77 1.80 1.83 1.85 1.86 1.77 1.70 1.60 1.53 1.48 1.42 1.41 1.43 1.42 1.40 1.41 1.43 1.42 1.41 1.37 1.30 1.22 1.21 1.23 1.19 1.14 1.11 1.08 1.07 1.09 1.12 1.20 1.31 1.40 1.42 1.38 1.37 1.35 1.34 1.33 1.31 1.27 1.22 1.18 1.17 1.16 1.05 0.90 0.95 0.97 0.88 0.87 0.81
1.06 1.07 1.12 1.20 1.29 1.39 1.48 1.54 1.56 1.57 1.55 1.51 1.50 1.48 1.48 1.48 1.50 1.54 1.51 1.51 1.50 1.54 1.59 1.60 1.63 1.69 1.71 1.71 1.71 1.67 1.64 1.70 1.76 1.82 1.88 1.89 1.85 1.78 1.68 1.58 1.49 1.43 1.38 1.33 1.36 1.39 1.40 1.44 1.46 1.47 1.45 1.36 1.24 1.17 1.18 1.22 1.22 1.18 1.15 1.11 1.10 1.14 1.20 1.30 1.31 1.29 1.27 1.26 1.29 1.30 1.27 1.26 1.24 1.20 1.16 1.15 1.12 1.11 1.08 1.04 1.04 0.99 0.91 0.91 0.91
1.08 1.09 1.11 1.20 1.30 1.38 1.46 1.51 1.57 1.58 1.56 1.56 1.57 1.55 1.58 1.59 1.59 1.59 1.61 1.62 1.61 1.63 1.65 1.66 1.65 1.66 1.69 1.71 1.68 1.65 1.66 1.72 1.82 1.88 1.92 1.91 1.82 1.74 1.65 1.51 1.39 1.33 1.30 1.24 1.25 1.31 1.37 1.41 1.45 1.44 1.37 1.27 1.16 1.13 1.18 1.25 1.23 1.18 1.14 1.10 1.11 1.10 1.26 1.32 1.32 1.28 1.23 1.22 1.22 1.20 1.16 1.15 1.14 1.11 1.08 1.06 1.07 1.10 1.11 1.12 1.10 1.07 0.99 0.95 0.94
1.14 1.17 1.20 1.25 1.28 1.34 1.43 1.49 1.53 1.59 1.64 1.63 1.63 1.65 1.66 1.64 1.65 1.67 1.67 1.69 1.68 1.66 1.66 1.68 1.66 1.63 1.66 1.66 1.67 1.71 1.75 1.79 1.84 1.86 1.87 1.81 1.76 1.67 1.54 1.44 1.39 1.34 1.29 1.24 1.28 1.28 1.31 1.38 1.40 1.34 1.24 1.19 1.16 1.16 1.16 1.16 1.21 1.22 1.20 1.13 1.13 1.21 1.29 1.29 1.30 1.30 1.24 1.21 1.16 1.11 1.08 1.06 1.02 0.99 0.99 1.01 1.04 1.08 1.12 1.12 1.12 1.10 1.03 0.97 0.92
1.20 1.21 1.21 1.21 1.24 1.30 1.39 1.49 1.59 1.63 1.69 1.73 1.71 1.67 1.71 1.74 1.74 1.75 1.75 1.71 1.68 1.67 1.68 1.66 1.61 1.60 1.62 1.65 1.68 1.71 1.78 1.81 1.84 1.84 1.80 1.76 1.69 1.60 1.49 1.45 1.43 1.35 1.26 1.29 1.30 1.28 1.30 1.34 1.31 1.24 1.23 1.22 1.18 1.10 1.06 1.14 1.24 1.23 1.18 1.18 1.21 1.27 1.33 1.36 1.32 1.25 1.18 1.13 1.06 1.03 1.01 0.96 0.92 0.94 0.98 1.03 1.07 1.10 1.11 1.10 1.09 1.07 1.05 1.02 0.96
1.24 1.26 1.25 1.26 1.28 1.31 1.38 1.48 1.56 1.66 1.69 1.74 1.73 1.70 1.75 1.78 1.82 1.83 1.78 1.75 1.71 1.67 1.65 1.61 1.56 1.54 1.57 1.62 1.67 1.69 1.72 1.77 1.80 1.75 1.72 1.66 1.59 1.55 1.51 1.46 1.42 1.39 1.35 1.29 1.23 1.23 1.28 1.27 1.25 1.26 1.24 1.18 1.11 1.07 1.10 1.23 1.25 1.19 1.19 1.27 1.34 1.35 1.33 1.28 1.21 1.13 1.07 1.03 0.99 0.95 0.93 0.91 0.91 0.96 1.01 1.04 1.07 1.09 1.08 1.05 1.01 0.99 0.98 0.99 0.99
1.37 1.37 1.35 1.33 1.34 1.37 1.41 1.49 1.59 1.67 1.73 1.79 1.81 1.78 1.78 1.81 1.84 1.83 1.81 1.75 1.67 1.61 1.60 1.59 1.54 1.49 1.49 1.53 1.59 1.64 1.69 1.74 1.74 1.68 1.63 1.63 1.60 1.52 1.48 1.46 1.47 1.45 1.38 1.25 1.21 1.21 1.25 1.28 1.27 1.22 1.17 1.13 1.09 1.12 1.21 1.25 1.21 1.24 1.31 1.34 1.32 1.29 1.22 1.15 1.10 1.05 1.00 0.96 0.93 0.91 0.89 0.92 0.96 0.99 1.01 1.02 1.02 1.02 0.99 0.94 0.91 0.90 0.89 0.87 0.85
1.51 1.46 1.43 1.42 1.42 1.46 1.50 1.54 1.62 1.70 1.79 1.83 1.81 1.82 1.83 1.86 1.84 1.87 1.83 1.74 1.65 1.58 1.56 1.53 1.49 1.49 1.52 1.52 1.55 1.63 1.71 1.73 1.64 1.60 1.67 1.65 1.56 1.48 1.46 1.48 1.47 1.41 1.28 1.25 1.25 1.26 1.27 1.26 1.22 1.17 1.14 1.14 1.20 1.24 1.24 1.22 1.24 1.30 1.32 1.27 1.21 1.17 1.11 1.04 1.00 0.97 0.93 0.91 0.92 0.90 0.89 0.92 0.95 0.97 0.99 0.98 0.96 0.94 0.88 0.84 0.84 0.83 0.82 0.82 0.79
1.66 1.65 1.64 1.61 1.57 1.59 1.52 1.59 1.67 1.75 1.86 1.93 1.90 1.91 1.88 1.88 1.84 1.82 1.79 1.70 1.63 1.56 1.48 1.46 1.47 1.50 1.50 1.54 1.60 1.65 1.64 1.56 1.56 1.61 1.60 1.52 1.45 1.44 1.46 1.46 1.39 1.34 1.31 1.29 1.28 1.29 1.30 1.27 1.21 1.18 1.21 1.26 1.26 1.21 1.19 1.26 1.30 1.28 1.22 1.17 1.11 1.04 1.00 0.98 0.97 0.95 0.93 0.93 0.89 0.83 0.85 0.90 0.93 0.95 0.94 0.92 0.86 0.80 0.77 0.75 0.74 0.72 0.71 0.67 0.62
1.63 1.73 1.84 1.88 1.82 1.76 1.66 1.64 1.70 1.80 1.93 1.97 1.99 2.01 1.99 1.95 1.88 1.79 1.68 1.58 1.55 1.50 1.45 1.42 1.44 1.48 1.51 1.56 1.60 1.57 1.51 1.49 1.48 1.44 1.44 1.43 1.42 1.45 1.44 1.38 1.35 1.33 1.30 1.31 1.32 1.31 1.29 1.26 1.23 1.24 1.26 1.26 1.24 1.24 1.27 1.28 1.22 1.17 1.11 1.04 1.01 1.02 1.03 1.01 0.99 0.97 0.95 0.89 0.84 0.84 0.88 0.93 0.95 0.91 0.87 0.83 0.78 0.76 0.75 0.72 0.67 0.65 0.64 0.60 0.53
1.72 1.77 1.77 1.87 1.93 1.98 1.89 1.83 1.80 1.82 1.96 2.01 1.97 1.98 2.00 1.97 1.83 1.67 1.56 1.51 1.46 1.42 1.41 1.43 1.44 1.46 1.48 1.52 1.51 1.47 1.44 1.42 1.40 1.38 1.41 1.43 1.44 1.42 1.39 1.35 1.30 1.28 1.28 1.30 1.31 1.31 1.28 1.26 1.22 1.21 1.19 1.17 1.20 1.26 1.24 1.19 1.13 1.05 1.01 1.02 1.04 1.05 1.05 1.06 1.05 1.01 0.96 0.90 0.88 0.91 0.91 0.90 0.85 0.83 0.82 0.76 0.72 0.71 0.70 0.67 0.65 0.63 0.59 0.52 0.44
1.66 1.61 1.68 1.87 1.90 1.99 2.02 1.93 1.85 1.88 1.96 1.97 2.01 2.02 1.95 1.83 1.65 1.56 1.60 1.62 1.55 1.46 1.44 1.49 1.51 1.54 1.53 1.49 1.45 1.40 1.40 1.37 1.42 1.52 1.50 1.51 1.45 1.39 1.35 1.28 1.26 1.26 1.28 1.30 1.30 1.30 1.25 1.18 1.13 1.12 1.12 1.14 1.17 1.15 1.10 1.05 1.02 1.02 1.04 1.04 1.04 1.05 1.04 1.02 0.98 0.94 0.90 0.90 0.88 0.86 0.83 0.82 0.80 0.79 0.73 0.68 0.66 0.66 0.68 0.66 0.64 0.58 0.51 0.45 0.39
1.64 1.60 1.55 1.62 1.81 1.82 1.90 1.91 1.92 1.97 2.00 1.96 1.93 1.86 1.78 1.67 1.63 1.58 1.53 1.57 1.61 1.64 1.62 1.56 1.58 1.57 1.53 1.55 1.55 1.45 1.39 1.45 1.55 1.52 1.52 1.50 1.44 1.39 1.33 1.27 1.24 1.25 1.27 1.31 1.30 1.21 1.12 1.08 1.08 1.08 1.10 1.12 1.07 1.01 0.98 0.98 0.99 1.01 1.01 1.04 1.05 1.03 1.02 1.01 0.96 0.91 0.92 0.89 0.87 0.82 0.80 0.78 0.71 0.67 0.64 0.63 0.63 0.64 0.62 0.60 0.55 0.50 0.42 0.38 0.35
1.63 1.70 1.74 1.75 1.81 1.86 1.80 1.85 1.94 1.91 1.94 1.89 1.74 1.62 1.51 1.56 1.59 1.59 1.61 1.62 1.65 1.65 1.65 1.66 1.64 1.60 1.53 1.46 1.49 1.52 1.52 1.52 1.51 1.54 1.53 1.45 1.40 1.35 1.31 1.27 1.26 1.27 1.31 1.28 1.19 1.09 1.05 1.03 1.03 1.06 1.07 1.04 0.98 0.95 0.96 0.95 0.95 0.96 0.98 1.01 1.03 1.03 1.00 0.95 0.93 0.93 0.89 0.84 0.79 0.74 0.70 0.66 0.64 0.64 0.62 0.61 0.59 0.58 0.57 0.53 0.47 0.42 0.38 0.35 0.32
1.50 1.58 1.70 1.70 1.79 1.82 1.85 1.90 1.93 1.92 1.81 1.68 1.55 1.48 1.43 1.38 1.44 1.57 1.63 1.66 1.65 1.64 1.64 1.60 1.57 1.53 1.50 1.49 1.46 1.45 1.48 1.48 1.48 1.47 1.45 1.40 1.35 1.33 1.30 1.28 1.27 1.27 1.25 1.19 1.08 1.05 1.04 1.01 1.00 0.99 0.98 0.95 0.94 0.95 0.94 0.92 0.93 0.94 0.97 0.98 0.99 1.00 0.95 0.92 0.94 0.90 0.82 0.73 0.68 0.66 0.65 0.63 0.61 0.61 0.61 0.60 0.58 0.54 0.49 0.43 0.39 0.36 0.35 0.34 0.33
1.52 1.73 1.79 1.82 1.82 1.87 1.88 1.92 1.84 1.66 1.51 1.42 1.43 1.46 1.41 1.39 1.36 1.39 1.52 1.57 1.57 1.54 1.52 1.48 1.46 1.47 1.48 1.48 1.50 1.50 1.49 1.45 1.41 1.39 1.38 1.34 1.32 1.30 1.29 1.28 1.26 1.23 1.21 1.14 1.06 1.00 0.99 0.96 0.93 0.94 0.94 0.90 0.91 0.90 0.89 0.89 0.91 0.95 0.98 0.98 0.94 0.95 0.96 0.97 0.93 0.81 0.74 0.70 0.67 0.63 0.61 0.61 0.61 0.61 0.59 0.56 0.51 0.47 0.43 0.37 0.35 0.33 0.32 0.31 0.30
1.64 1.83 1.88 1.88 1.90 1.87 1.76 1.61 1.50 1.46 1.49 1.50 1.50 1.50 1.49 1.47 1.41 1.38 1.31 1.33 1.39 1.43 1.43 1.42 1.41 1.44 1.46 1.47 1.48 1.48 1.44 1.39 1.38 1.38 1.35 1.32 1.31 1.29 1.26 1.23 1.21 1.22 1.17 1.06 0.98 0.92 0.93 0.94 0.95 0.93 0.90 0.88 0.86 0.85 0.85 0.89 0.93 0.96 0.98 0.97 0.97 0.96 0.92 0.85 0.77 0.71 0.69 0.66 0.64 0.63 0.63 0.61 0.60 0.56 0.53 0.50 0.49 0.45 0.36 0.33 0.32 0.31 0.30 0.30 0.30
1.85 1.91 1.86 1.78 1.64 1.52 1.45 1.44 1.44 1.43 1.41 1.39 1.38 1.37 1.41 1.45 1.42 1.34 1.26 1.19 1.18 1.18 1.22 1.30 1.35 1.39 1.39 1.39 1.41 1.42 1.42 1.40 1.39 1.36 1.34 1.31 1.28 1.27 1.26 1.18 1.09 1.06 1.03 1.00 0.97 0.95 0.96 0.95 0.91 0.90 0.86 0.82 0.82 0.84 0.85 0.89 0.92 0.93 0.92 0.90 0.86 0.81 0.76 0.71 0.67 0.66 0.65 0.64 0.63 0.60 0.58 0.56 0.56 0.54 0.51 0.48 0.45 0.36 0.31 0.31 0.31 0.31 0.30 0.30 0.30
1.71 1.65 1.60 1.53 1.49 1.49 1.47 1.45 1.44 1.40 1.36 1.34 1.34 1.31 1.31 1.29 1.28 1.27 1.29 1.25 1.21 1.16 1.14 1.21 1.26 1.31 1.35 1.35 1.36 1.36 1.36 1.38 1.35 1.33 1.31 1.29 1.28 1.26 1.15 1.07 1.02 0.97 0.94 0.96 0.99 1.01 0.99 0.94 0.90 0.86 0.82 0.80 0.80 0.81 0.83 0.83 0.82 0.82 0.82 0.81 0.78 0.75 0.71 0.67 0.66 0.65 0.63 0.62 0.60 0.60 0.59 0.57 0.56 0.52 0.50 0.48 0.42 0.34 0.31 0.30 0.30 0.30 0.31 0.30 0.30
1.59 1.56 1.54 1.52 1.48 1.45 1.45 1.42 1.43 1.41 1.37 1.34 1.31 1.27 1.25 1.25 1.26 1.24 1.21 1.18 1.17 1.19 1.22 1.26 1.29 1.30 1.32 1.33 1.32 1.31 1.30 1.31 1.31 1.31 1.28 1.26 1.25 1.20 1.11 1.04 0.97 0.96 0.95 0.98 1.00 0.98 0.93 0.89 0.86 0.83 0.82 0.82 0.83 0.85 0.86 0.85 0.85 0.84 0.84 0.82 0.78 0.73 0.69 0.66 0.64 0.63 0.61 0.60 0.59 0.57 0.55 0.53 0.50 0.48 0.46 0.43 0.37 0.32 0.30 0.30 0.29 0.30 0.30 0.29 0.31
1.57 1.55 1.54 1.54 1.48 1.38 1.32 1.31 1.33 1.32 1.31 1.27 1.27 1.24 1.24 1.25 1.25 1.21 1.21 1.22 1.25 1.26 1.28 1.28 1.27 1.27 1.25 1.26 1.31 1.27 1.25 1.27 1.27 1.22 1.19 1.15 1.11 1.06 1.02 0.99 0.99 0.98 1.00 0.99 0.96 0.90 0.86 0.85 0.84 0.82 0.83 0.84 0.84 0.84 0.83 0.81 0.81 0.79 0.77 0.72 0.69 0.65 0.63 0.60 0.59 0.59 0.58 0.58 0.57 0.56 0.53 0.48 0.46 0.44 0.44 0.38 0.31 0.28 0.29 0.29 0.29 0.28 0.28 0.29 0.31
1.59 1.56 1.53 1.47 1.39 1.33 1.27 1.21 1.18 1.17 1.20 1.23 1.26 1.27 1.25 1.22 1.19 1.19 1.21 1.20 1.23 1.21 1.20 1.17 1.14 1.16 1.21 1.21 1.19 1.21 1.18 1.11 1.05 1.02 1.02 1.01 1.02 1.01 0.99 0.97 0.97 0.96 0.94 0.90 0.87 0.84 0.83 0.83 0.83 0.83 0.84 0.84 0.84 0.83 0.81 0.81 0.80 0.76 0.71 0.66 0.61 0.60 0.58 0.57 0.56 0.55 0.54 0.53 0.53 0.52 0.45 0.41 0.41 0.42 0.39 0.32 0.28 0.29 0.29 0.29 0.29 0.28 0.27 0.28 0.30
1.35 1.39 1.36 1.29 1.24 1.20 1.20 1.21 1.21 1.22 1.22 1.22 1.25 1.25 1.23 1.20 1.22 1.23 1.23 1.19 1.13 1.12 1.14 1.14 1.16 1.19 1.19 1.19 1.15 1.12 1.03 1.00 0.97 0.95 0.93 0.93 0.93 0.93 0.94 0.92 0.91 0.89 0.85 0.82 0.85 0.85 0.84 0.84 0.85 0.86 0.86 0.86 0.83 0.81 0.82 0.80 0.77 0.71 0.65 0.60 0.57 0.54 0.53 0.53 0.52 0.51 0.49 0.47 0.43 0.42 0.40 0.39 0.39 0.38 0.34 0.31 0.30 0.30 0.29 0.28 0.28 0.28 0.28 0.29 0.31
1.31 1.28 1.26 1.23 1.21 1.19 1.22 1.24 1.28 1.28 1.28 1.26 1.25 1.23 1.23 1.25 1.28 1.24 1.17 1.12 1.12 1.12 1.14 1.18 1.19 1.20 1.20 1.18 1.16 1.11 1.02 0.96 0.94 0.93 0.93 0.92 0.91 0.89 0.90 0.90 0.88 0.84 0.84 0.85 0.88 0.89 0.88 0.88 0.88 0.88 0.86 0.83 0.82 0.81 0.81 0.77 0.69 0.61 0.55 0.52 0.50 0.48 0.48 0.47 0.47 0.46 0.45 0.44 0.41 0.40 0.40 0.40 0.40 0.37 0.32 0.31 0.32 0.30 0.28 0.28 0.27 0.27 0.28 0.31 0.32
1.37 1.33 1.29 1.25 1.23 1.23 1.23 1.19 1.28 1.32 1.34 1.28 1.30 1.25 1.29 1.25 1.21 1.16 1.14 1.13 1.13 1.13 1.14 1.15 1.17 1.18 1.19 1.18 1.15 1.11 1.05 1.02 1.01 0.97 0.94 0.91 0.90 0.89 0.89 0.88 0.87 0.88 0.88 0.88 0.90 0.92 0.91 0.90 0.88 0.86 0.83 0.81 0.81 0.80 0.76 0.68 0.61 0.55 0.53 0.51 0.49 0.48 0.47 0.46 0.46 0.46 0.45 0.44 0.42 0.41 0.40 0.39 0.38 0.36 0.34 0.32 0.31 0.29 0.27 0.27 0.26 0.27 0.30 0.31 0.31
1.41 1.39 1.38 1.37 1.35 1.28 1.28 1.25 1.27 1.27 1.30 1.28 1.25 1.27 1.25 1.20 1.17 1.18 1.17 1.17 1.18 1.16 1.15 1.13 1.14 1.15 1.15 1.15 1.11 1.07 1.04 1.01 0.96 0.92 0.89 0.90 0.91 0.92 0.89 0.86 0.87 0.92 0.92 0.92 0.92 0.91 0.89 0.87 0.86 0.86 0.84 0.82 0.81 0.76 0.68 0.62 0.59 0.57 0.54 0.52 0.50 0.48 0.46 0.46 0.46 0.45 0.45 0.44 0.44 0.42 0.40 0.38 0.37 0.35 0.33 0.32 0.31 0.27 0.26 0.26 0.26 0.28 0.30 0.31 0.29
1.36 1.35 1.31 1.35 1.39 1.40 1.38 1.31 1.25 1.27 1.23 1.23 1.23 1.20 1.22 1.20 1.21 1.24 1.26 1.26 1.27 1.26 1.21 1.15 1.13 1.13 1.12 1.10 1.05 1.01 0.95 0.92 0.91 0.92 0.93 0.94 0.91 0.88 0.86 0.87 0.91 0.93 0.92 0.91 0.91 0.90 0.89 0.87 0.85 0.85 0.85 0.82 0.78 0.72 0.65 0.61 0.59 0.56 0.54 0.52 0.50 0.49 0.47 0.46 0.45 0.45 0.44 0.43 0.42 0.40 0.38 0.37 0.36 0.33 0.31 0.29 0.25 0.24 0.25 0.25 0.26 0.29 0.30 0.29 0.29
1.36 1.38 1.35 1.34 1.34 1.42 1.46 1.40 1.31 1.31 1.31 1.26 1.24 1.27 1.28 1.28 1.29 1.31 1.30 1.30 1.29 1.26 1.19 1.13 1.12 1.09 1.04 1.00 0.96 0.93 0.94 0.95 0.96 0.96 0.94 0.92 0.89 0.88 0.89 0.92 0.92 0.91 0.90 0.90 0.90 0.89 0.88 0.86 0.83 0.78 0.73 0.71 0.67 0.62 0.58 0.56 0.55 0.54 0.53 0.52 0.50 0.48 0.46 0.45 0.44 0.44 0.43 0.40 0.38 0.37 0.35 0.33 0.29 0.26 0.22 0.19 0.19 0.21 0.23 0.24 0.27 0.30 0.29 0.29 0.28
1.48 1.46 1.42 1.36 1.27 1.27 1.28 1.31 1.32 1.32 1.33 1.33 1.34 1.32 1.32 1.30 1.28 1.26 1.22 1.20 1.18 1.14 1.11 1.08 1.05 1.03 1.01 1.00 0.99 0.99 1.00 1.00 0.99 0.99 0.99 0.97 0.94 0.93 0.94 0.95 0.93 0.92 0.91 0.90 0.90 0.88 0.86 0.81 0.75 0.72 0.67 0.62 0.58 0.56 0.55 0.54 0.52 0.50 0.48 0.46 0.44 0.42 0.41 0.41 0.42 0.40 0.39 0.38 0.37 0.34 0.32 0.29 0.26 0.24 0.22 0.20 0.20 0.21 0.23 0.26 0.29 0.31 0.30 0.30 0.30
1.44 1.43 1.41 1.35 1.31 1.28 1.28 1.31 1.31 1.32 1.34 1.37 1.43 1.44 1.36 1.28 1.26 1.24 1.22 1.16 1.14 1.10 1.09 1.07 1.06 1.04 1.03 1.03 1.02 1.03 1.03 1.02 1.00 1.00 1.00 0.99 0.98 0.97 0.97 0.97 0.93 0.91 0.90 0.90 0.88 0.83 0.79 0.77 0.74 0.68 0.62 0.58 0.56 0.54 0.51 0.49 0.47 0.46 0.44 0.42 0.38 0.36 0.35 0.36 0.37 0.36 0.35 0.34 0.32 0.30 0.28 0.26 0.24 0.21 0.19 0.19 0.20 0.21 0.23 0.27 0.29 0.30 0.30 0.31 0.31
1.42 1.38 1.35 1.32 1.28 1.28 1.31 1.35 1.34 1.33 1.34 1.36 1.35 1.37 1.43 1.39 1.32 1.26 1.21 1.18 1.15 1.11 1.08 1.07 1.07 1.06 1.05 1.04 1.04 1.03 1.01 1.00 0.99 0.99 0.97 0.96 0.96 0.97 0.97 0.94 0.91 0.90 0.88 0.84 0.80 0.79 0.77 0.74 0.70 0.64 0.59 0.56 0.54 0.53 0.54 0.54 0.53 0.50 0.46 0.42 0.39 0.35 0.33 0.32 0.31 0.29 0.29 0.29 0.28 0.26 0.24 0.20 0.18 0.17 0.18 0.19 0.19 0.22 0.24 0.26 0.29 0.30 0.31 0.33 0.33
1.32 1.34 1.35 1.32 1.26 1.22 1.23 1.28 1.34 1.36 1.34 1.33 1.32 1.32 1.37 1.35 1.36 1.33 1.20 1.12 1.10 1.08 1.07 1.07 1.07 1.06 1.04 1.03 1.02 0.99 0.97 0.96 0.95 0.95 0.94 0.94 0.95 0.95 0.94 0.91 0.87 0.84 0.80 0.78 0.77 0.76 0.74 0.69 0.64 0.60 0.57 0.55 0.55 0.55 0.55 0.56 0.55 0.52 0.46 0.42 0.39 0.36 0.32 0.29 0.28 0.27 0.28 0.26 0.23 0.20 0.18 0.17 0.17 0.17 0.18 0.18 0.19 0.23 0.26 0.28 0.30 0.30 0.32 0.34 0.33
1.08 1.11 1.14 1.15 1.14 1.18 1.22 1.20 1.18 1.22 1.27 1.30 1.28 1.26 1.27 1.24 1.20 1.14 1.10 1.10 1.10 1.10 1.13 1.13 1.10 1.08 1.05 1.03 1.00 0.96 0.92 0.89 0.88 0.88 0.90 0.93 0.95 0.93 0.89 0.87 0.84 0.82 0.80 0.76 0.73 0.70 0.67 0.64 0.61 0.58 0.56 0.57 0.58 0.58 0.57 0.57 0.56 0.53 0.48 0.43 0.38 0.34 0.30 0.28 0.26 0.25 0.24 0.23 0.20 0.18 0.18 0.17 0.17 0.18 0.18 0.19 0.21 0.25 0.26 0.28 0.29 0.32 0.33 0.33 0.31
1.07 1.06 1.05 1.03 1.02 1.05 1.07 1.07 1.08 1.09 1.14 1.21 1.29 1.27 1.24 1.17 1.09 1.07 1.10 1.13 1.15 1.16 1.18 1.17 1.11 1.06 1.04 1.00 0.95 0.90 0.86 0.84 0.83 0.83 0.85 0.88 0.87 0.83 0.81 0.79 0.77 0.75 0.72 0.68 0.66 0.65 0.62 0.60 0.60 0.60 0.60 0.61 0.60 0.59 0.59 0.58 0.57 0.55 0.50 0.46 0.42 0.38 0.33 0.29 0.26 0.25 0.24 0.23 0.21 0.19 0.18 0.17 0.17 0.17 0.18 0.20 0.24 0.27 0.28 0.29 0.31 0.31 0.31 0.31 0.30
Wind_Speed
25 24 24 24 24 25 25 25 25 25 24 24 23 22 22 21 21 20 19 18 18 17 16 16 15 15 15 15 15 14 14 14 14 14 14 13 13 14 14 14 15 15 15 15 15 15 15 14 14 14 13 13 13 13 13 13 13 13 13 13 13 14 14 14 15 16 16 16 17 17 17 17 17 18 18 19 20 20 21 21 22 22 22 23 23
24 24 23 24 24 24 24 25 25 25 25 24 24 23 23 22 21 21 20 19 19 18 17 17 16 16 16 16 15 15 15 14 14 14 14 14 14 14 15 15 16 16 15 16 16 16 15 15 15 15 14 14 14 14 14 14 14 14 14 14 15 15 15 16 16 17 18 18 18 18 18 18 18 19 19 19 20 21 21 22 22 22 23 23 24
24 23 23 24 24 24 24 24 25 25 25 25 24 24 23 23 22 22 21 20 20 19 18 18 17 17 17 16 16 16 15 15 14 14 15 15 15 16 16 16 17 16 16 16 16 16 16 16 16 16 15 15 15 15 15 15 16 16 16 16 16 17 17 17 18 18 19 20 20 20 20 20 20 20 20 20 21 21 22 22 23 23 24 24 25
24 24 24 24 24 24 24 24 24 25 25 25 25 24 24 23 23 22 22 21 21 20 19 19 18 18 17 17 17 17 16 15 15 15 15 16 17 17 17 17 17 17 17 17 17 17 17 17 17 17 17 16 16 16 16 16 17 17 17 17 18 18 19 19 20 20 21 21 21 21 21 21 21 21 21 21 22 22 23 23 24 24 25 25 25
25 24 24 24 24 24 24 24 24 25 25 25 25 25 24 24 23 23 22 22 21 21 20 19 18 18 18 18 17 17 17 16 16 16 16 17 17 17 17 18 18 18 18 18 17 18 18 18 18 18 18 17 17 17 17 17 18 18 18 18 19 19 20 20 21 21 22 22 23 23 23 22 22 22 22 23 23 23 24 24 24 25 25 26 26
26 26 25 24 24 24 24 24 24 25 25 25 25 25 25 24 24 23 23 22 22 21 21 20 19 18 18 18 18 18 17 17 17 17 17 17 18 18 18 18 18 18 19 18 18 18 19 19 19 19 18 18 17 17 18 18 19 19 19 20 20 20 21 21 22 22 23 23 24 24 24 24 24 24 24 24 24 24 25 26 26 26 27 27 27
27 27 26 26 25 25 25 24 24 24 25 25 25 25 25 25 24 24 23 23 22 22 21 20 20 19 19 18 18 18 18 17 18 18 18 18 18 18 18 18 18 19 19 19 19 19 19 19 19 19 19 19 18 19 19 20 20 20 21 21 21 22 22 22 22 23 23 24 25 25 25 25 25 26 25 25 26 26 26 27 28 28 28 29 29
28 28 28 28 27 26 25 25 25 25 25 26 26 26 26 25 25 24 24 24 23 22 21 21 20 19 19 19 19 19 19 18 19 19 19 19 19 19 19 19 19 19 20 20 20 19 19 19 19 20 20 20 20 20 20 21 21 22 22 22 22 22 23 23 23 24 24 25 25 26 26 26 26 27 27 27 27 28 28 29 29 29 29 30 30
29 28 28 29 28 27 26 26 25 25 25 26 26 26 26 26 25 25 25 24 23 22 22 21 20 20 20 20 20 20 20 19 20 20 20 20 20 19 19 19 20 20 20 20 20 20 20 20 20 20 20 20 20 21 21 21 22 22 22 22 23 23 24 24 24 25 25 26 26 26 27 27 27 28 28 28 29 29 30 30 30 30 30 30 31
30 29 29 29 29 29 28 27 26 26 26 27 27 27 27 26 26 26 26 25 24 23 22 22 21 21 21 21 21 21 21 21 21 22 22 22 21 20 20 20 21 21 21 21 21 21 21 20 20 20 20 20 21 21 22 22 23 23 22 23 24 25 25 25 25 25 25 26 26 27 27 28 28 29 29 29 30 30 30 30 30 31 31 31 32
31 30 30 29 29 30 29 29 28 27 27 27 28 28 28 27 27 27 26 26 25 24 23 23 22 22 22 22 22 22 22 22 22 23 23 23 22 21 21 22 22 21 21 21 22 22 22 21 21 21 22 21 21 22 23 23 23 24 24 25 26 26 26 26 26 26 26 26 27 28 28 28 29 29 30 30 31 31 31 31 31 32 32 31 31
32 31 31 30 30 30 31 30 30 29 28 28 28 29 28 28 28 28 27 26 25 25 24 24 23 23 23 23 23 23 23 23 23 24 24 23 22 22 22 23 22 22 22 22 23 23 22 22 22 22 22 22 22 23 23 24 24 24 25 25 26 26 26 26 26 27 27 28 29 29 29 29 29 28 29 30 31 32 31 31 32 33 33 32 32
32 32 32 31 31 31 32 31 31 30 30 29 29 29 29 29 29 29 28 27 26 25 25 24 24 24 24 24 24 23 24 24 24 24 24 23 23 24 23 22 22 23 23 24 24 23 23 22 22 23 23 23 23 23 24 24 24 24 25 25 25 26 26 27 28 28 28 29 30 29 29 29 29 29 30 30 31 31 32 32 33 33 33 33 33
33 33 33 33 32 32 33 33 32 32 31 30 30 30 30 30 30 29 28 28 27 26 26 25 25 24 24 24 24 24 24 24 24 24 24 25 26 25 23 22 23 23 24 24 24 24 23 22 22 23 23 23 23 24 24 24 24 25 25 26 26 26 26 27 27 28 28 29 29 29 29 30 31 32 32 32 32 33 34 34 34 34 34 34 34
34 33 33 33 33 33 33 33 33 33 32 32 31 31 31 31 30 30 29 28 28 27 27 26 26 25 25 24 24 24 24 24 24 23 24 27 28 26 24 24 24 24 24 24 24 24 24 23 23 23 23 23 23 24 25 25 25 26 27 27 27 26 25 26 27 28 29 28 28 29 29 30 32 32 33 33 34 34 35 35 34 34 34 35 34
35 34 34 33 34 34 34 34 34 33 33 33 32 32 32 32 31 31 30 29 28 28 27 27 26 25 25 25 24 25 24 24 23 24 25 26 27 26 26 26 25 24 24 24 24 24 24 24 24 24 23 23 24 25 25 26 26 27 27 27 27 26 25 27 29 29 28 28 28 29 30 32 33 34 34 34 35 35 35 34 34 35 35 35 35
35 35 35 34 34 34 35 35 35 34 33 33 33 33 33 32 32 31 30 30 29 28 28 27 27 26 25 25 25 25 24 23 23 24 25 26 27 27 28 27 26 25 24 24 25 25 25 25 25 24 24 24 25 25 26 26 27 27 27 27 26 26 26 27 28 28 28 28 30 31 32 33 34 34 35 35 35 35 35 35 35 35 35 35 35
35 36 36 36 35 35 36 36 36 35 35 34 34 34 33 33 32 32 31 31 30 29 28 28 27 27 26 26 25 25 24 24 25 25 26 27 28 28 28 27 26 25 25 25 25 26 25 25 25 24 24 25 25 26 26 26 26 26 26 26 26 27 28 28 28 28 28 29 30 31 33 34 35 35 35 36 36 35 35 35 35 35 34 34 34
36 36 36 37 36 36 36 37 37 36 36 36 35 34 34 33 32 32 31 31 30 29 29 28 27 27 26 26 25 25 25 25 26 27 27 27 27 27 27 26 26 26 26 26 26 26 26 25 24 24 24 24 26 27 27 27 27 26 26 26 27 28 28 28 28 28 29 30 31 32 34 34 35 35 36 36 36 35 34 34 34 33 33 33 33
38 37 37 37 36 36 36 37 38 37 36 36 36 35 34 33 32 32 31 30 30 29 29 28 27 27 26 25 25 25 25 26 26 27 26 26 26 25 25 25 25 25 25 26 26 26 25 24 24 23 24 25 26 27 27 27 27 26 26 26 28 28 28 27 28 28 29 30 32 34 35 35 36 36 36 35 34 34 33 33 33 32 32 32 31
40 39 39 38 37 37 37 37 38 38 37 37 36 35 34 33 32 32 31 30 29 28 28 28 27 26 26 25 24 24 25 25 25 25 25 25 25 25 25 25 24 25 25 26 26 26 24 23 23 23 25 26 27 27 26 26 26 26 26 27 28 28 28 27 28 28 30 32 33 35 36 36 36 35 35 34 33 32 32 31 31 31 30 30 29
42 42 41 40 39 38 37 37 38 38 38 37 36 35 34 33 32 31 30 29 28 28 27 27 26 25 25 24 24 24 24 24 24 24 24 25 25 25 25 24 24 24 25 26 26 25 24 23 23 24 25 26 25 25 24 24 24 25 27 28 28 28 28 28 29 30 31 33 34 36 36 36 35 34 33 33 32 31 30 30 29 29 28 28 28
43 43 42 42 41 39 38 38 38 38 38 37 37 35 34 33 32 31 30 29 28 28 27 26 25 24 24 24 24 24 24 24 24 24 24 25 25 25 24 24 24 24 25 25 25 24 23 22 23 24 24 24 24 24 23 23 24 26 26 27 27 27 28 28 29 31 32 34 35 36 35 34 33 32 31 31 30 29 28 28 28 28 28 27 28
43 43 43 43 41 40 39 38 38 38 38 38 37 35 34 33 31 30 30 29 28 27 26 26 25 24 23 23 23 23 23 24 24 24 24 25 25 24 24 24 24 25 25 25 24 23 22 22 22 23 23 22 22 22 22 23 24 25 25 25 26 27 28 29 30 32 33 34 34 34 33 32 31 30 29 28 28 28 27 27 28 28 27 28 28
43 44 44 44 43 41 40 39 39 39 38 38 38 36 34 33 31 30 29 29 28 27 26 25 25 24 24 23 23 23 23 24 24 24 24 24 24 24 24 24 24 24 24 23 23 22 21 21 21 22 21 21 20 21 22 23 24 25 25 26 27 28 29 30 31 32 32 32 32 31 30 30 29 28 28 27 27 27 27 27 27 27 28 28 28
44 45 45 45 44 44 42 41 39 39 39 39 38 36 34 32 31 30 29 29 28 27 26 25 25 25 24 24 23 23 23 23 24 24 24 24 24 24 24 24 23 23 22 22 22 21 20 20 20 21 20 20 20 21 23 24 24 25 26 27 28 28 29 30 30 30 31 31 30 29 28 28 27 27 26 26 26 26 26 26 27 27 28 28 28
43 44 46 46 45 44 44 42 41 40 39 39 37 36 34 32 31 30 30 29 28 27 26 25 25 24 23 23 23 23 23 23 23 24 24 23 23 23 23 23 22 22 22 22 21 20 20 19 20 20 19 20 21 22 23 24 25 26 27 27 28 28 28 29 29 29 29 29 28 27 27 26 26 26 26 26 26 26 26 26 27 27 27 27 27
42 43 44 45 46 46 46 45 43 40 39 38 36 34 33 32 31 30 30 29 28 26 25 25 24 24 24 23 23 23 23 23 23 24 24 24 23 22 22 22 22 22 22 22 21 20 20 19 19 19 20 21 22 23 24 25 25 26 26 27 27 27 27 28 28 28 28 27 26 25 25 25 25 25 25 25 25 26 26 26 27 27 27 27 27
39 41 43 45 46 46 46 45 43 40 38 36 35 33 32 31 30 29 28 27 27 26 26 25 24 24 24 24 23 23 23 24 24 24 24 23 22 22 22 22 23 23 22 22 21 20 20 20 20 20 21 22 23 24 25 25 25 26 26 26 27 27 27 27 27 27 26 25 24 24 24 25 25 25 25 25 25 25 26 26 26 26 26 26 26
35 37 40 42 42 42 41 40 40 39 36 35 33 31 29 28 28 27 26 26 26 26 25 24 24 24 24 24 24 23 23 24 24 24 23 23 22 22 21 21 22 22 22 21 20 20 20 20 20 21 22 23 24 24 25 25 25 26 26 26 27 27 26 26 25 24 24 23 23 23 23 23 23 24 24 24 24 25 25 25 25 25 25 25 25
35 35 37 37 38 38 37 36 35 34 33 32 31 29 28 26 25 25 25 25 25 24 24 24 24 24 24 23 23 23 23 23 23 23 23 22 22 22 21 21 21 21 20 20 20 20 20 20 21 22 23 23 24 24 25 25 25 26 27 27 26 26 25 24 23 22 22 22 22 21 21 22 22 23 23 23 24 24 24 24 24 24 23 23 23
33 33 33 32 33 35 34 32 31 31 30 29 29 28 27 26 24 24 23 23 23 23 23 23 23 23 23 22 22 23 23 22 22 22 22 22 22 21 21 21 20 20 20 20 20 20 20 20 21 22 22 23 24 24 25 25 26 27 26 25 25 24 23 22 21 21 21 20 20 20 20 21 21 22 22 22 23 23 23 23 22 22 22 22 22
29 28 28 28 30 31 31 29 29 28 26 26 27 27 27 26 25 24 23 22 22 22 22 22 22 22 21 21 22 22 22 22 21 21 21 21 21 20 20 20 19 19 20 20 20 20 20 20 20 21 22 23 24 25 25 26 26 26 25 23 22 21 21 20 20 19 19 19 19 19 19 19 20 21 21 22 22 22 22 22 21 21 22 22 22
24 23 25 27 28 29 29 28 26 24 23 24 26 27 27 26 26 25 24 23 22 22 21 21 21 21 21 21 21 21 21 21 20 20 20 20 19 19 19 18 18 19 20 20 19 19 19 20 20 21 22 23 24 24 24 25 25 24 23 21 20 19 19 19 18 18 18 19 18 18 18 19 19 20 20 20 20 20 20 21 21 21 21 21 22
22 24 25 25 25 25 25 24 23 23 22 24 25 26 26 26 25 24 23 22 22 21 21 21 21 20 21 20 20 20 20 20 20 20 20 19 19 18 18 18 18 19 19 19 19 19 19 20 21 21 22 22 22 22 23 23 22 22 20 19 18 17 17 17 18 18 18 18 17 17 18 18 18 19 19 20 19 20 20 20 21 21 21 21 21
21 22 21 21 21 21 21 21 22 22 22 23 24 24 24 24 23 23 22 22 21 20 20 20 20 20 20 20 20 19 19 19 19 19 19 18 18 18 18 18 18 18 18 18 18 19 19 20 20 21 21 21 21 21 21 21 21 20 18 17 17 17 17 17 17 18 17 17 17 17 17 18 18 19 19 19 19 19 20 21 21 21 21 21 21
16 17 17 17 18 18 19 20 21 21 22 22 22 22 22 22 22 22 21 21 20 20 20 20 20 20 20 20 19 18 18 18 18 17 17 18 18 18 18 18 18 18 18 18 18 19 19 19 19 20 20 20 21 21 21 21 21 20 18 17 17 17 17 17 17 17 16 16 16 17 17 18 18 18 18 19 19 20 21 21 21 21 21 21 21
13 14 15 16 17 18 19 19 20 21 21 21 21 21 21 22 22 22 22 22 22 22 21 21 20 20 20 19 18 18 17 17 16 16 17 17 18 18 18 18 18 18 18 18 18 18 18 18 19 19 19 20 20 21 21 21 20 19 18 17 17 17 17 16 16 16 16 16 17 17 17 18 18 18 18 18 19 20 21 21 21 21 20 20 20
12 13 14 16 17 18 18 19 19 20 20 20 20 20 20 21 21 22 22 22 22 21 21 20 20 20 19 18 17 17 17 17 17 17 17 18 18 18 18 18 18 18 18 18 18 18 18 18 18 19 19 20 20 21 21 20 19 18 17 17 16 16 16 16 16 16 16 16 17 17 17 17 17 17 18 18 19 20 21 21 21 21 20 20 20
13 13 14 15 16 17 18 18 18 19 19 19 19 20 20 20 21 21 21 21 20 20 19 19 19 19 18 18 17 17 17 17 17 18 18 18 18 18 18 18 18 18 17 17 17 17 18 18 18 19 19 20 20 20 20 19 18 17 16 16 16 16 16 16 15 15 15 16 16 16 15 16 17 17 18 18 18 19 20 20 21 21 20 20 20
13 13 13 14 15 16 17 18 18 19 19 20 20 20 21 21 21 21 20 20 19 19 19 19 20 19 19 18 18 18 18 18 18 18 18 18 18 18 18 18 18 17 17 17 18 18 18 18 18 19 19 19 19 19 19 18 17 16 15 15 15 15 15 15 14 14 15 15 15 15 15 16 16 17 17 18 18 19 20 20 21 20 20 19 19
13 13 14 14 15 15 16 17 19 19 20 20 21 21 21 21 21 20 20 19 19 19 19 19 20 20 19 19 19 18 18 18 18 18 18 18 18 18 18 18 18 17 17 17 18 18 18 18 18 19 19 19 19 19 18 18 17 16 15 15 14 14 14 14 14 14 15 15 15 15 15 16 16 17 17 18 18 19 19 20 20 20 19 19 19
13 14 15 15 16 16 17 18 18 19 20 20 20 20 20 20 20 19 19 19 19 19 20 20 19 19 19 19 19 18 18 18 18 18 18 18 18 18 18 18 17 17 17 17 17 17 17 18 18 18 19 19 19 19 18 18 17 16 15 14 14 14 14 14 14 14 15 15 15 15 15 16 16 17 17 18 18 18 18 19 19 19 19 18 18
15 16 17 17 18 18 19 19 19 19 19 19 19 20 20 20 20 19 19 19 20 20 20 20 20 20 19 19 19 18 18 18 18 18 18 18 18 17 17 17 16 16 16 16 17 17 17 18 18 18 18 19 19 19 18 17 16 15 14 13 13 13 14 14 14 14 15 15 15 15 15 16 16 17 17 17 17 17 18 18 18 18 18 17 16
16 17 17 17 18 18 18 18 18 18 18 19 19 20 20 20 20 20 20 20 19 19 19 19 19 19 19 19 18 18 18 17 17 17 17 17 17 17 17 16 16 16 16 17 17 18 18 18 18 18 18 18 18 17 16 15 14 14 13 13 13 14 14 14 14 14 14 14 15 15 15 15 16 16 16 16 16 17 17 17 18 18 17 16 16
17 17 17 18 18 18 19 19 19 19 19 19 19 20 20 20 21 21 20 19 19 18 18 18 18 18 18 18 18 18 17 17 18 18 18 17 17 17 17 17 17 17 17 18 18 18 18 18 18 17 17 17 17 16 15 14 14 13 13 13 13 13 13 13 13 13 13 14 15 15 15 15 16 16 16 16 16 16 16 17 17 17 16 16 15
18 18 19 19 19 19 20 21 21 21 20 20 20 20 20 19 19 19 18 18 18 18 18 18 18 18 18 18 18 18 18 18 18 18 18 18 18 18 18 18 18 18 18 18 18 18 18 18 17 17 16 16 16 15 14 13 13 12 12 12 12 12 12 12 12 12 13 14 15 15 15 15 15 15 15 15 15 15 16 16 16 16 15 15 15
18 19 19 20 20 20 20 20 20 20 19 19 19 18 18 17 17 16 16 17 17 18 18 18 18 18 18 18 18 18 18 19 19 19 18 18 18 18 18 18 18 18 18 18 18 18 18 18 17 16 16 16 15 15 14 13 12 12 12 12 12 12 12 12 12 12 13 14 15 15 15 15 14 15 15 15 15 15 15 16 16 15 15 15 15
18 18 19 19 19 19 19 19 19 19 19 18 18 18 18 18 17 17 18 18 18 18 18 18 18 18 18 17 17 18 18 18 19 19 19 18 18 18 18 18 19 19 19 19 19 18 18 17 17 16 16 15 15 14 14 13 13 12 12 12 13 13 12 12 12 12 13 13 14 14 14 14 14 14 14 14 14 15 15 15 15 15 15 15 15
17 17 17 18 18 18 18 18 18 18 19 19 19 19 20 20 20 19 19 19 19 18 18 18 18 18 18 17 17 18 18 18 19 19 19 19 18 18 18 19 19 19 19 19 19 18 18 17 16 16 16 15 15 14 14 14 13 13 12 12 12 13 13 13 13 13 13 13 13 13 13 14 14 14 14 14 14 14 15 15 15 15 14 14 15
16 16 16 17 17 17 17 17 18 18 18 19 19 19 19 20 20 20 20 20 19 19 19 19 18 18 18 18 18 18 18 18 18 18 18 18 18 18 18 18 18 19 19 19 19 18 18 17 17 16 16 16 15 15 14 14 14 14 13 13 12 12 12 12 13 13 13 13 13 13 13 13 14 14 14 14 14 14 14 14 14 14 14 14 14
Wind_Direction
221 222 223 224 225 226 226 226 226 226 226 226 226 226 225 224 224 225 226 227 229 231 233 236 238 242 245 249 254 259 263 267 271 275 277 281 285 288 291 294 296 298 298 296 295 297 298 300 303 302 297 291 288 288 289 289 287 284 281 279 279 280 281 280 281 284 285 285 286 286 286 285 284 282 282 284 284 284 285 284 284 283 283 284 285
219 220 222 223 224 225 226 226 226 226 226 226 226 226 225 224 224 225 227 229 230 232 234 237 240 242 246 250 254 258 262 265 270 274 275 278 283 287 290 291 292 295 296 294 291 292 294 296 299 300 298 293 289 287 287 288 287 285 282 279 278 279 280 280 280 283 285 287 288 287 286 285 284 283 284 284 285 285 285 285 285 285 284 284 285
218 220 222 223 224 225 226 226 226 226 226 226 226 225 224 224 224 226 228 229 231 233 236 239 242 244 247 250 254 258 262 266 270 273 275 278 283 287 288 289 289 290 293 293 290 288 290 292 295 297 296 292 288 287 287 287 287 287 285 283 281 281 281 281 281 282 284 287 288 288 287 285 283 283 283 283 284 285 285 286 287 287 286 286 285
218 219 221 223 224 225 225 226 226 226 226 227 226 225 224 224 225 227 228 230 232 234 237 240 243 245 248 251 255 259 262 267 271 274 277 280 283 286 286 287 288 288 290 291 290 287 286 289 293 295 294 290 287 286 286 286 286 285 284 284 283 284 284 284 283 283 284 285 287 288 288 286 283 282 282 283 284 285 286 287 287 287 286 286 286
219 219 221 222 223 224 225 226 227 227 227 227 226 225 225 225 227 228 229 230 232 235 238 241 243 245 248 252 256 260 264 267 270 274 278 282 284 285 286 286 287 287 287 289 289 288 286 287 291 294 293 290 287 286 285 284 285 285 283 283 283 284 286 286 286 286 285 285 286 287 287 286 284 283 283 284 286 287 287 288 287 287 286 286 286
220 220 221 223 224 225 226 227 227 227 227 226 226 225 225 226 228 229 229 230 232 235 238 241 243 246 249 253 257 260 264 268 271 274 279 282 284 285 285 285 286 287 288 288 290 290 288 287 290 292 292 290 288 287 286 284 284 284 283 283 284 285 286 286 286 286 286 286 287 287 286 285 285 284 283 284 285 286 287 287 287 287 286 285 284
222 222 222 223 224 225 226 227 227 227 227 226 226 226 226 227 228 229 229 231 233 235 238 241 244 247 250 253 257 260 263 267 270 274 278 281 284 285 284 285 286 288 288 288 289 290 289 287 288 289 289 288 287 287 287 286 285 284 284 285 286 286 286 287 287 286 287 288 288 287 286 286 285 285 284 284 284 285 286 286 287 288 287 286 284
224 224 224 224 225 226 227 227 227 227 227 227 227 227 228 228 229 229 230 231 233 235 238 241 245 247 250 253 257 260 263 266 270 273 276 279 282 284 284 284 286 287 288 288 287 287 287 287 287 288 288 287 287 288 288 288 288 286 286 287 287 287 287 288 288 287 288 289 289 288 287 286 286 285 285 284 284 286 287 287 287 289 289 287 285
226 226 226 227 227 227 227 228 228 228 228 228 228 228 228 229 229 229 230 231 234 236 239 242 245 248 251 254 257 260 264 268 271 273 275 277 280 282 283 284 284 286 288 288 287 286 285 285 285 286 288 286 285 287 288 289 289 288 287 287 288 288 288 288 288 289 289 289 290 289 287 286 285 285 284 284 285 287 289 288 288 289 290 288 287
227 227 228 230 229 227 227 228 228 228 228 228 228 228 228 229 229 230 230 232 234 237 240 243 245 248 251 254 258 261 266 271 272 272 274 276 278 280 281 282 284 285 287 287 287 287 286 285 282 283 286 286 284 285 288 289 288 287 286 288 289 289 288 288 288 289 289 288 289 290 289 287 286 284 283 285 287 289 290 288 288 290 291 289 288
228 229 230 231 230 228 228 228 228 229 229 229 229 229 229 229 230 231 231 232 235 238 240 242 245 249 252 255 259 263 268 273 274 274 274 274 278 281 281 282 285 285 285 285 286 287 287 284 281 282 284 286 286 287 288 289 288 287 287 288 289 288 287 287 288 290 290 289 289 290 290 289 288 286 285 286 289 290 289 289 289 291 292 290 289
229 230 231 231 230 230 230 229 229 229 229 229 229 229 229 230 230 231 231 234 237 239 241 243 246 250 252 256 260 264 269 273 274 276 274 273 278 284 284 284 285 285 285 286 286 287 287 284 281 282 285 286 287 289 289 289 288 287 286 286 286 286 286 287 289 291 291 290 289 290 290 290 291 290 289 288 289 290 291 291 291 292 292 290 289
230 231 231 231 230 231 230 230 229 230 230 230 230 230 229 230 230 231 233 235 237 239 241 244 247 250 253 257 261 265 270 272 274 276 275 274 278 283 283 284 286 286 286 287 288 287 287 284 282 284 286 286 287 289 290 290 288 287 286 286 286 286 286 287 288 290 291 291 290 289 289 290 291 292 292 292 292 293 293 294 293 293 292 291 290
230 231 231 230 231 231 231 230 230 231 231 230 230 230 230 230 230 232 234 236 237 239 242 245 248 251 254 258 262 266 270 271 273 273 274 276 278 279 282 285 287 287 287 288 289 288 287 285 284 284 286 286 286 288 290 290 288 287 287 289 289 289 287 286 287 289 293 294 292 289 289 291 292 293 294 295 295 295 295 295 295 294 293 292 291
231 231 231 230 230 231 231 231 231 231 231 231 230 230 230 231 231 232 234 236 238 241 243 246 249 252 255 260 263 267 269 271 272 272 274 277 277 279 285 288 287 287 288 288 289 289 287 286 285 285 284 284 285 287 289 290 289 287 287 289 290 289 287 287 289 292 294 294 292 290 291 293 294 295 296 296 296 297 297 296 296 295 294 293 292
231 231 232 231 231 230 230 231 231 231 231 231 230 230 230 231 232 233 235 237 240 242 244 247 250 252 256 260 263 266 269 271 271 273 276 278 278 280 287 289 287 286 286 287 288 289 287 286 285 283 283 283 284 285 288 290 290 288 287 288 288 287 287 289 291 293 293 293 292 292 293 295 296 297 297 298 298 298 298 297 297 295 294 293 293
233 233 233 232 231 230 230 231 232 231 231 231 231 230 230 231 232 234 236 238 240 242 245 248 250 253 257 259 261 265 269 270 271 273 277 279 280 281 284 286 285 284 284 285 286 287 286 285 284 282 281 282 283 284 287 290 290 288 286 286 287 287 289 291 293 293 292 291 292 293 294 296 297 297 298 299 299 299 298 297 297 296 294 294 293
235 234 234 234 233 232 231 231 231 231 231 231 231 230 230 231 233 234 236 239 241 243 246 249 252 255 256 258 260 264 268 270 271 274 277 279 280 282 283 283 282 281 283 284 285 285 285 284 283 281 281 282 283 284 286 289 289 287 285 285 286 288 291 293 294 293 292 292 293 295 296 297 298 299 299 299 298 298 297 296 296 295 293 293 293
236 235 236 236 235 234 233 231 231 231 231 231 230 229 229 230 232 234 237 239 242 244 246 249 252 255 256 257 260 264 269 272 273 274 276 277 279 281 282 281 279 280 282 283 284 285 285 283 282 281 281 281 282 283 285 287 288 286 283 284 287 289 291 293 293 292 293 294 296 297 299 299 299 299 299 298 297 296 295 295 295 294 293 293 293
240 238 238 237 237 236 235 232 231 230 230 230 229 229 229 230 232 234 236 239 242 244 246 249 252 254 255 258 261 265 270 273 274 274 275 276 277 279 281 280 279 280 282 283 285 285 284 283 282 281 280 280 282 284 285 286 286 285 284 286 288 290 292 293 292 293 294 295 296 298 300 300 300 299 299 298 297 296 295 295 295 295 295 294 293
242 241 240 239 238 238 237 234 231 230 229 228 228 228 229 230 231 233 236 238 241 244 246 249 251 253 255 259 262 266 270 273 274 273 274 275 276 278 280 280 280 281 282 283 285 284 283 282 282 281 281 282 283 284 284 284 285 285 286 288 289 290 292 292 293 294 295 296 297 299 300 301 300 300 299 298 297 297 296 296 296 296 295 293 292
242 242 241 240 240 239 238 235 232 229 228 226 226 226 227 228 230 233 236 238 240 243 245 247 250 252 255 259 263 267 271 273 273 272 273 274 275 276 278 279 279 281 282 283 284 284 282 281 282 282 283 284 284 285 284 283 285 287 288 289 289 290 292 292 294 295 296 297 299 301 301 301 300 300 299 299 298 298 297 296 296 296 295 293 292
242 242 241 241 240 240 238 235 232 229 226 225 225 225 226 227 230 233 235 237 239 241 243 246 248 251 255 260 264 268 271 273 273 272 273 274 275 275 276 277 278 281 283 284 284 283 281 281 282 283 284 285 286 285 284 284 286 288 289 288 289 291 293 294 295 297 298 299 301 301 302 301 300 300 300 300 300 298 297 297 296 296 295 294 294
242 241 241 240 240 240 238 234 231 227 224 223 224 225 225 227 230 233 234 236 238 240 242 244 247 250 255 261 265 268 270 272 272 272 273 274 274 274 275 276 278 282 285 285 284 283 281 281 283 284 285 286 286 285 285 285 288 289 289 289 290 293 295 296 297 298 299 300 301 302 301 301 301 302 301 301 300 298 297 297 297 297 297 296 296
242 241 241 240 240 240 237 233 229 225 223 222 223 223 225 227 229 232 233 234 236 238 241 244 246 251 256 261 264 267 270 272 273 273 273 274 275 274 275 276 279 283 284 284 283 282 281 281 283 284 285 285 286 286 287 288 289 289 289 291 293 295 296 297 297 298 299 301 302 302 302 302 303 303 302 301 300 300 299 299 298 298 298 298 298
242 242 242 241 241 239 235 231 227 224 222 221 222 223 224 226 228 230 231 233 235 237 240 244 248 252 256 259 262 266 269 271 272 273 274 275 275 274 275 277 280 282 283 283 283 281 280 282 284 284 284 285 286 288 290 291 290 290 291 293 295 297 297 298 298 299 300 302 302 303 303 303 303 303 302 301 301 301 300 300 300 300 300 299 299
243 243 242 240 238 235 231 226 224 221 220 219 220 222 224 225 226 227 229 231 235 238 241 244 248 251 254 258 261 264 266 269 271 272 272 274 274 274 274 277 278 279 281 282 281 279 280 282 284 283 284 285 288 291 293 293 292 293 294 295 297 298 298 298 298 300 302 303 303 303 303 303 303 302 301 301 301 301 301 300 301 301 301 301 301
246 245 243 241 238 233 227 222 219 218 217 216 217 220 222 222 224 226 229 232 234 237 240 243 246 250 253 256 260 262 265 268 270 270 270 271 271 272 273 274 276 277 279 280 278 277 280 283 283 284 285 288 290 293 294 294 294 295 295 297 298 298 298 299 300 301 302 303 303 303 302 302 301 301 302 302 302 302 302 302 302 302 302 302 302
250 248 246 244 239 231 224 217 213 212 212 212 215 218 219 220 222 226 229 233 234 236 239 243 246 249 252 256 259 262 265 268 269 269 269 269 270 271 272 273 275 277 277 276 275 277 280 282 282 284 287 290 292 294 294 294 295 296 297 298 298 298 299 300 301 302 302 302 302 301 300 301 302 302 303 304 304 304 304 304 304 304 304 304 303
252 252 251 245 235 226 219 213 208 205 206 208 211 214 215 218 222 225 228 232 235 237 240 244 247 250 254 257 261 264 266 268 268 267 267 268 269 270 271 273 275 276 274 273 274 276 279 281 282 284 288 291 293 294 294 295 296 296 297 298 298 298 300 301 301 301 301 301 300 300 301 302 303 304 305 306 306 306 306 306 306 305 305 305 305
249 252 252 244 231 220 214 208 202 200 201 204 206 208 211 216 221 225 228 232 235 237 240 243 247 251 255 259 262 266 268 269 269 267 266 267 268 268 270 272 274 273 271 271 274 277 279 280 283 285 288 291 292 294 295 296 297 297 297 297 298 299 300 300 300 300 300 300 301 302 303 304 305 307 308 308 308 308 308 307 307 307 307 307 306
245 249 247 238 224 213 207 201 196 194 197 201 203 206 211 215 220 225 229 232 235 238 241 244 248 252 256 258 262 266 268 269 269 267 266 266 267 267 269 271 271 270 269 271 274 276 278 280 284 287 289 291 293 296 297 298 298 298 297 297 298 299 298 298 299 299 300 301 303 305 306 307 309 311 311 311 311 311 310 310 310 310 310 309 309
242 241 231 217 206 198 193 190 189 190 196 203 206 210 213 216 220 224 228 232 236 239 243 247 250 253 257 260 263 266 267 267 265 265 266 266 266 267 268 269 269 269 270 272 274 275 277 281 285 289 291 294 296 297 298 297 298 298 297 297 297 298 298 298 299 300 301 303 305 307 309 311 313 314 315 315 314 314 314 314 313 313 313 312 312
225 212 196 187 183 182 182 184 188 193 201 207 210 213 217 219 222 225 228 232 237 241 245 250 253 255 259 262 264 265 265 263 262 263 265 264 264 265 267 269 270 271 272 273 273 275 278 283 287 290 293 295 297 298 298 298 298 298 298 297 297 297 298 298 299 300 303 305 307 308 310 312 315 317 319 319 318 318 317 317 316 316 315 314 313
185 177 173 174 178 182 185 190 196 201 206 209 212 215 219 221 225 227 230 234 239 242 245 249 253 258 261 262 262 263 262 261 261 263 262 261 261 263 265 267 269 271 272 273 274 276 280 284 288 291 294 296 298 299 300 301 301 300 299 297 296 296 297 299 300 302 305 307 308 309 311 314 317 319 320 320 320 320 320 319 318 317 316 315 314
167 171 174 179 185 191 197 201 205 208 211 213 214 216 219 223 227 231 235 237 239 241 245 250 254 258 261 262 262 262 261 260 261 261 259 258 258 260 262 265 268 270 271 272 274 277 281 286 289 291 293 296 298 301 302 302 302 301 299 297 296 296 298 300 302 304 305 307 308 311 313 316 318 319 320 320 320 321 321 321 320 318 316 316 315
177 183 187 190 195 201 205 208 210 212 214 215 216 219 223 227 229 232 235 237 240 244 249 251 254 257 259 260 261 260 259 259 259 259 258 257 258 260 263 266 267 268 269 272 275 279 283 286 288 290 292 295 298 299 301 301 301 301 300 298 297 297 298 300 302 304 305 306 308 311 313 315 317 319 320 320 320 321 322 323 322 319 317 317 317
185 192 195 199 203 205 207 210 212 214 216 218 221 225 228 230 231 233 236 239 244 249 251 252 254 256 255 255 257 257 256 255 255 255 256 257 259 262 265 267 268 269 270 273 276 279 282 284 286 289 292 295 297 298 300 300 300 300 299 298 297 297 297 299 301 302 303 305 308 310 312 314 316 317 318 319 321 322 323 323 323 321 320 319 318
200 201 201 203 207 209 210 212 213 216 218 221 224 227 230 232 235 238 241 244 247 250 252 253 253 252 250 251 253 253 252 251 252 253 255 258 260 264 266 268 269 270 271 273 276 278 280 283 286 290 293 295 296 297 299 299 298 298 297 295 295 295 296 297 299 300 302 305 307 309 311 312 313 315 317 320 321 323 323 324 325 324 322 320 319
208 208 207 209 211 212 213 214 216 219 222 223 226 230 233 237 240 242 244 246 247 248 250 250 248 248 249 250 251 250 250 251 252 254 257 259 262 265 266 266 267 268 270 272 274 277 280 284 288 291 293 294 295 297 298 298 297 296 295 293 292 292 294 296 298 300 302 305 307 308 309 310 312 315 318 320 321 323 324 325 326 325 324 322 321
213 214 214 215 216 218 219 221 223 226 227 229 232 237 240 242 243 244 245 247 247 248 248 247 246 247 249 249 249 251 253 254 255 257 259 261 262 264 264 264 265 267 269 271 274 277 281 285 288 290 291 293 295 296 296 296 295 294 293 292 292 292 294 296 297 299 301 305 307 307 307 308 312 315 318 320 322 324 325 326 327 327 326 325 324
221 223 224 224 226 228 229 231 232 234 235 238 241 243 244 243 242 242 244 246 248 248 247 247 247 247 248 249 250 253 256 257 258 260 261 261 262 262 263 263 264 266 270 273 275 278 281 284 287 289 291 292 293 294 294 293 292 291 290 290 291 291 293 294 295 297 300 303 305 306 307 309 312 315 317 319 322 323 325 327 328 329 328 328 328
231 233 233 233 235 237 238 239 239 240 240 241 242 242 241 240 241 242 245 247 248 247 247 246 246 247 248 249 251 254 256 258 259 259 260 260 260 261 262 263 264 267 271 274 276 279 282 284 286 289 290 291 291 292 292 291 289 287 287 287 287 287 289 290 293 296 299 302 305 307 308 309 312 314 316 318 320 322 324 327 329 329 330 331 332
240 241 240 240 243 245 246 245 244 244 243 242 242 241 241 242 243 245 247 249 249 249 248 247 245 246 247 249 251 254 256 257 257 257 259 259 259 260 260 262 264 267 270 272 275 279 282 284 286 288 290 291 291 291 290 288 285 283 282 281 281 282 284 286 289 293 298 301 305 307 308 309 311 312 315 317 319 321 324 327 328 329 331 332 334
245 244 243 245 248 250 249 247 246 246 246 246 245 244 244 243 244 246 248 249 249 249 248 246 245 246 248 250 252 253 254 254 255 256 257 258 259 259 259 261 264 266 268 271 275 278 281 283 286 288 290 290 290 289 286 283 281 280 279 279 280 281 282 284 288 294 298 302 304 306 307 309 311 312 314 316 318 320 323 325 327 329 331 333 334
248 246 247 249 251 251 250 250 250 250 251 251 250 247 245 244 245 246 246 246 246 246 245 245 248 251 251 251 251 251 251 254 256 257 257 258 259 259 260 262 264 266 268 271 275 278 280 283 285 287 287 287 287 286 283 280 279 278 279 280 282 282 282 284 289 294 298 301 302 304 306 308 310 312 314 316 317 319 322 324 325 328 330 332 333
250 249 250 251 252 252 252 252 252 251 252 251 249 247 245 242 241 241 241 241 243 245 246 248 251 252 250 249 249 250 252 255 258 258 258 258 258 259 260 262 263 265 269 272 274 276 278 281 282 283 282 282 283 283 281 279 279 279 280 282 283 283 282 284 289 293 297 298 300 302 304 306 308 310 312 314 316 318 320 322 325 327 328 330 332
252 252 252 252 253 254 254 252 249 247 247 245 241 237 234 231 230 233 238 242 244 247 250 251 250 249 248 248 250 252 254 256 257 258 258 259 259 259 260 261 263 266 269 271 272 274 276 277 278 278 279 280 281 280 278 277 278 279 280 280 281 281 281 284 288 292 295 297 300 302 303 305 306 308 311 313 315 316 319 322 324 325 326 328 329
253 253 253 253 253 253 252 250 246 244 242 240 236 231 228 229 233 240 245 248 249 251 251 249 247 246 247 249 251 253 256 257 257 257 258 259 260 261 262 263 265 267 268 269 270 272 273 273 274 276 277 277 277 276 274 273 275 278 280 281 281 280 281 283 286 289 292 296 300 302 303 304 306 307 309 311 313 315 318 321 322 323 324 325 326
252 252 252 251 251 250 250 249 246 242 240 240 239 237 237 240 244 247 248 249 250 249 247 246 245 246 248 250 251 254 257 258 258 257 258 259 260 262 264 265 265 265 266 267 268 269 270 271 272 274 274 273 271 270 268 268 271 275 278 280 281 281 282 283 286 288 291 295 298 300 302 303 304 306 307 309 311 313 317 319 320 321 321 321 322
251 252 251 249 248 247 247 247 246 243 241 240 241 243 245 247 248 248 247 248 248 246 244 245 247 249 250 251 253 256 257 258 257 257 257 258 260 262 265 265 264 264 264 265 266 267 269 270 271 271 270 268 267 265 264 264 266 270 273 276 278 280 282 284 287 290 292 294 296 298 300 301 302 303 305 306 308 311 314 316 317 319 319 318 319